[[{"header":{"parameterUnit":"m.s-1","parameterCategory":1,"la1":30.2991,"la2":30.254,"lo1":-89.0895,"lo2":-89.0444,"dy":0.0017,"dx":0.0017,"nx":28,"ny":28,"refTime":"2025-07-25T03:00:00:Z","depth":0,"parameterNumber":2,"parameterNumberName":"U-component_of_WINDS"},"data":[0,0,0,0,0,0,0,0,0,0,0,0,0,0,0,0,0,0,0,0,0,0,0,0,0,0,0,0,0,0,0,0,0,0,0,0,0,0,0,0,0,0,0,0,0,0,0,0,0,0,0,0,0,0,0,0,0,0,0.2683,0.2683,0,0.2619,0.2618,0.2618,0.2565,0.2564,0.2564,0.2563,0.2494,0.2493,0.2491,0,0,0,0,0,0,0,0,0,0,0,0,0,0.2756,0.2755,0.2683,0.2683,0.2682,0.2619,0.2618,0.2618,0.2565,0.2564,0.2564,0.2563,0.2494,0.2493,0.2491,0,0,0,0,0,0,0,0,0,0,0,0,0,0.2711,0.2755,0.2683,0.2648,0.2644,0.262,0.2618,0.2617,0.2565,0.2564,0.2564,0.2563,0.2495,0.2493,0.2491,0.2495,0,0,0.2485,0.2484,0,0,0,0,0,0,0,0,0.2714,0.2709,0.2654,0.2651,0.2646,0.2599,0.2619,0.2576,0.2565,0.2595,0.2563,0.2562,0.2529,0.2524,0.2514,0.2492,0.2489,0.2485,0.2483,0.2483,0.2482,0,0,0,0,0,0,0,0.2717,0.2711,0.2658,0.2653,0.2649,0.2634,0.2627,0.261,0.2567,0.2592,0.2588,0.2582,0.2527,0.2516,0.2512,0.2488,0.2485,0.2483,0.2482,0.2481,0.2462,0.2463,0,0,0,0,0,0,0.2726,0.2714,0.266,0.2656,0.2679,0.2633,0.2625,0.2615,0.2568,0.256,0.2583,0.258,0.252,0.2515,0.2509,0.2509,0.2483,0.2481,0.2479,0.2462,0.2463,0.2463,0,0,0,0,0,0,0.2728,0.2722,0.2662,0.2684,0.2675,0.2633,0.2622,0.2614,0.2603,0.256,0.2552,0.258,0.2519,0.2512,0.2499,0.2506,0.248,0.2478,0.2461,0.2462,0.2463,0.251,0,0,0,0,0,0,0.273,0.2723,0.2725,0.2684,0.2674,0.2654,0.2623,0.2614,0.2601,0.2596,0.2555,0.2548,0.2518,0.2502,0.2497,0.2503,0.2476,0.246,0.2461,0.2463,0.2507,0.2512,0.2517,0,0,0,0,0,0.2733,0.274,0.2726,0.2719,0.2676,0.2655,0.2649,0.2616,0.2601,0.2602,0.2574,0.2549,0.2507,0.2501,0.2495,0.25,0.2459,0.2461,0.2463,0.2505,0.2511,0.2516,0,0,0,0,0,0,0.2782,0.2734,0.2717,0.2712,0.2688,0.2646,0.2646,0.2624,0.2602,0.2599,0.2557,0.2548,0.2539,0.2518,0.2513,0.25,0.2479,0.248,0.2514,0.2519,0.2524,0.2528,0.2475,0,0,0,0,0,0.2792,0.278,0.2739,0.2738,0.2727,0.2689,0.2678,0.2655,0.2628,0.2617,0.2588,0.2561,0.2542,0.253,0.2509,0.2505,0.2493,0.2505,0.251,0.2514,0.2514,0.2507,0.2511,0.2469,0.2469,0.2469,0,0,0.2813,0.2786,0.278,0.2747,0.2726,0.2712,0.268,0.2668,0.2657,0.2614,0.26,0.2578,0.2545,0.2535,0.2529,0.2518,0.2524,0.2516,0.2519,0.2517,0.251,0.2514,0.2517,0.247,0.247,0.2469,0,0,0.2844,0.2823,0.2819,0.2798,0.2766,0.2741,0.274,0.2702,0.2685,0.267,0.2637,0.2623,0.2591,0.2569,0.2553,0.2575,0.2549,0.2569,0.2592,0.2587,0.259,0.2593,0.2598,0.2601,0.257,0.257,0.257,0,0.2873,0.2853,0.2819,0.2809,0.2794,0.2756,0.2751,0.2732,0.2695,0.2685,0.2673,0.2631,0.2606,0.259,0.2595,0.2584,0.258,0.2573,0.2593,0.2595,0.2597,0.2602,0.2604,0.2572,0.2572,0.2572,0.2572,0,0.2889,0.2876,0.2876,0.2842,0.2828,0.282,0.2784,0.2773,0.2751,0.2726,0.271,0.2679,0.2651,0.2646,0.2624,0.2626,0.2619,0.2601,0.2578,0.2604,0.2608,0.2609,0.2576,0.2575,0.2574,0.2574,0,0,0.2948,0.2896,0.2896,0.288,0.2842,0.283,0.282,0.2793,0.2784,0.276,0.2748,0.2722,0.2704,0.2686,0.2661,0.2656,0.2673,0.2638,0.2636,0.2644,0.267,0.2683,0.2686,0.2657,0.2657,0.2657,0.2672,0,0.2971,0.2951,0.2921,0.291,0.2896,0.286,0.285,0.2825,0.2802,0.2785,0.2759,0.274,0.2719,0.2707,0.2701,0.2672,0.2677,0.2671,0.2643,0.2643,0.2651,0.2688,0.2702,0.2718,0.2673,0.2674,0.2674,0,0.2995,0.2973,0.2962,0.2924,0.2917,0.2909,0.2882,0.2867,0.2837,0.282,0.2801,0.2774,0.2759,0.274,0.2717,0.2714,0.2701,0.2685,0.2684,0.2679,0.2659,0.2682,0.2722,0.2724,0.2676,0.2676,0.2676,0,0.3036,0.3005,0.2993,0.298,0.2937,0.2932,0.2913,0.2882,0.2868,0.2844,0.2834,0.2808,0.2793,0.2773,0.2738,0.2728,0.2719,0.2698,0.2702,0.2703,0.2701,0.2701,0.2738,0.2696,0.2696,0.2695,0.2695,0,0.3064,0.3058,0.3011,0.3004,0.2995,0.296,0.2952,0.2929,0.2902,0.2889,0.2856,0.2843,0.28,0.2782,0.2755,0.2739,0.2733,0.2717,0.271,0.2719,0.2721,0.2709,0.2706,0.2696,0.2696,0.2696,0.2696,0,0.3108,0.3077,0.3062,0.3022,0.3011,0.3007,0.2971,0.2962,0.2937,0.292,0.2914,0.2874,0.2851,0.2815,0.2781,0.2763,0.2751,0.274,0.2761,0.2757,0.2763,0.2762,0.2791,0.2792,0.2752,0.2752,0.2753,0,0.3127,0.3121,0.3081,0.307,0.3053,0.3036,0.3021,0.2986,0.2972,0.2937,0.2931,0.2906,0.2883,0.2848,0.2814,0.2788,0.2775,0.2787,0.277,0.2779,0.2772,0.2772,0.277,0.279,0.2791,0.2791,0.2792,0,0.3163,0.3148,0.3129,0.3104,0.3088,0.3067,0.3044,0.3036,0.2995,0.2981,0.2957,0.294,0.2906,0.288,0.2849,0.2827,0.2802,0.2797,0.2797,0.2805,0.2817,0.2809,0.277,0.2796,0.2796,0.2796,0.2795,0.2795,0.3193,0.3186,0.3157,0.3136,0.3115,0.3094,0.3083,0.3057,0.3038,0.3008,0.2988,0.2965,0.2933,0.2889,0.2869,0.2849,0.2838,0.2837,0.2837,0.2837,0.2839,0.2822,0.2843,0.2843,0.2843,0.2843,0.2842,0,0.3226,0.3205,0.3187,0.3156,0.314,0.312,0.3092,0.3079,0.3061,0.3034,0.3013,0.2985,0.296,0.2925,0.2897,0.2887,0.2875,0.2881,0.288,0.2875,0.2852,0.2854,0.2891,0.2891,0.2891,0.2891,0.2891,0.2891,0.3241,0.3227,0.3209,0.3184,0.3162,0.3141,0.3127,0.3107,0.3085,0.3057,0.3036,0.3014,0.2983,0.2952,0.2927,0.2917,0.2907,0.2917,0.2903,0.2882,0.2877,0.2873,0.2875,0.2916,0.2916,0.2928,0.2928,0.2928]},{"header":{"parameterUnit":"m.s-1","parameterCategory":1,"la1":30.2991,"la2":30.254,"lo1":-89.0895,"lo2":-89.0444,"dy":0.0017,"dx":0.0017,"nx":28,"ny":28,"refTime":"2025-07-25T03:00:00:Z","depth":0,"parameterNumber":3,"parameterNumberName":"V-component_of_WINDS"},"data":[0,0,0,0,0,0,0,0,0,0,0,0,0,0,0,0,0,0,0,0,0,0,0,0,0,0,0,0,0,0,0,0,0,0,0,0,0,0,0,0,0,0,0,0,0,0,0,0,0,0,0,0,0,0,0,0,0,0,5.6439,5.644,0,5.6483,5.6483,5.6483,5.6391,5.6388,5.6385,5.6382,5.6422,5.6425,5.6429,0,0,0,0,0,0,0,0,0,0,0,0,0,5.6271,5.6274,5.6439,5.644,5.644,5.6482,5.6483,5.6484,5.6391,5.6388,5.6384,5.6381,5.642,5.6425,5.643,0,0,0,0,0,0,0,0,0,0,0,0,0,5.6332,5.6276,5.6439,5.6399,5.6396,5.6482,5.6483,5.6484,5.6392,5.6388,5.6383,5.6379,5.6419,5.6425,5.643,5.6555,0,0,5.6448,5.645,0,0,0,0,0,0,0,0,5.6329,5.6338,5.6405,5.6402,5.6399,5.6427,5.6438,5.6508,5.6393,5.6394,5.6382,5.6377,5.6427,5.6432,5.6449,5.6557,5.6559,5.6448,5.6452,5.6454,5.6456,0,0,0,0,0,0,0,5.6324,5.6336,5.6456,5.6406,5.6402,5.6378,5.6381,5.6451,5.6434,5.6393,5.6387,5.6393,5.6424,5.6444,5.645,5.6559,5.6448,5.6453,5.6457,5.6459,5.6769,5.6773,0,0,0,0,0,0,5.6326,5.6333,5.6455,5.6457,5.6352,5.6384,5.6388,5.6422,5.6434,5.6431,5.6397,5.6389,5.6436,5.6443,5.6451,5.6595,5.6454,5.646,5.6463,5.6764,5.677,5.6775,0,0,0,0,0,0,5.6323,5.6338,5.6453,5.6393,5.6406,5.6392,5.6431,5.6426,5.6445,5.6437,5.6433,5.6421,5.6433,5.6442,5.653,5.6595,5.6462,5.6467,5.6758,5.6766,5.6772,5.6888,0,0,0,0,0,0,5.6318,5.6337,5.6386,5.6395,5.641,5.6533,5.6435,5.643,5.6456,5.6446,5.6458,5.6455,5.643,5.6521,5.6535,5.6601,5.6472,5.6752,5.6762,5.677,5.6878,5.6898,5.6915,0,0,0,0,0,5.6313,5.6416,5.6389,5.6404,5.6471,5.6537,5.6545,5.6516,5.6462,5.6509,5.6503,5.6455,5.6587,5.6531,5.6546,5.6614,5.6748,5.6759,5.6769,5.6869,5.6894,5.6914,0,0,0,0,0,0,5.6413,5.6417,5.6386,5.6497,5.6518,5.6522,5.6581,5.6543,5.6579,5.6567,5.6528,5.6531,5.6625,5.6629,5.6567,5.6735,5.6658,5.6672,5.6729,5.6752,5.677,5.6766,5.6477,0,0,0,0,0,5.6449,5.6504,5.6504,5.66,5.6613,5.6596,5.6623,5.6599,5.6618,5.6626,5.6627,5.6646,5.6691,5.6722,5.6764,5.6879,5.6878,5.6933,5.6951,5.6967,5.6978,5.7037,5.706,5.681,5.681,5.681,0,0,5.6522,5.653,5.6567,5.6621,5.6634,5.669,5.6603,5.6667,5.6707,5.6635,5.6717,5.6719,5.6737,5.6838,5.6883,5.6844,5.7048,5.698,5.6993,5.6996,5.705,5.7074,5.7095,5.6818,5.6816,5.6815,0,0,5.6682,5.6696,5.6777,5.6793,5.6814,5.6802,5.6822,5.6832,5.683,5.6912,5.6859,5.6906,5.6986,5.7,5.7018,5.7185,5.714,5.72,5.7296,5.7353,5.7373,5.739,5.7446,5.7468,5.7212,5.7212,5.7212,0,5.6769,5.6854,5.6823,5.689,5.6914,5.6853,5.6933,5.695,5.6983,5.7,5.6957,5.7055,5.7064,5.7166,5.7206,5.7224,5.7243,5.7197,5.7373,5.739,5.7405,5.7459,5.748,5.7219,5.7218,5.7218,5.7217,0,5.6958,5.7018,5.708,5.7116,5.7147,5.722,5.7199,5.7234,5.7207,5.7199,5.7282,5.729,5.7331,5.7354,5.7328,5.7452,5.7427,5.738,5.7301,5.7436,5.7486,5.7506,5.7229,5.7226,5.7224,5.7223,0,0,5.7183,5.72,5.7224,5.7238,5.7257,5.7301,5.7371,5.7413,5.7442,5.7468,5.7524,5.7593,5.7548,5.7569,5.7544,5.7595,5.7723,5.754,5.7539,5.7571,5.7857,5.7891,5.7916,5.7694,5.7698,5.7701,5.7854,0,5.734,5.7461,5.7435,5.7554,5.7606,5.7549,5.761,5.7627,5.7622,5.7664,5.7657,5.7705,5.7644,5.7656,5.7704,5.7697,5.7779,5.7686,5.7743,5.7746,5.7738,5.7942,5.7979,5.8123,5.7874,5.7877,5.788,0,5.7539,5.7573,5.7697,5.7707,5.7728,5.7783,5.7818,5.786,5.7878,5.787,5.7894,5.7859,5.7925,5.7849,5.7939,5.7876,5.7898,5.7898,5.7903,5.7905,5.7819,5.7947,5.8168,5.8189,5.791,5.7908,5.7906,0,5.7687,5.7763,5.7847,5.7861,5.7876,5.7915,5.7922,5.7936,5.7962,5.7993,5.8009,5.8047,5.8067,5.8096,5.8071,5.8018,5.8164,5.8086,5.8157,5.8158,5.8188,5.8186,5.8414,5.8208,5.8207,5.8207,5.8207,0,5.7863,5.794,5.7913,5.7964,5.8049,5.8018,5.8101,5.8102,5.8115,5.8163,5.8116,5.8163,5.8129,5.8171,5.8153,5.8229,5.8239,5.8232,5.8226,5.8235,5.8236,5.8247,5.8235,5.8213,5.8211,5.821,5.8209,0,5.8041,5.8026,5.8113,5.812,5.8123,5.8185,5.8189,5.8235,5.8227,5.8289,5.8301,5.8287,5.8335,5.8314,5.8364,5.8351,5.8448,5.843,5.8443,5.8437,5.8508,5.8501,5.8749,5.8779,5.8556,5.8558,5.856,0,5.8153,5.8212,5.8225,5.8255,5.8266,5.8315,5.8341,5.8313,5.8342,5.8366,5.8409,5.8454,5.8487,5.8566,5.8559,5.8597,5.8577,5.8661,5.8582,5.8589,5.8575,5.8571,5.8575,5.8676,5.8679,5.8681,5.8683,0,5.8353,5.8343,5.8384,5.8423,5.8456,5.8485,5.8509,5.8536,5.8508,5.8543,5.8592,5.8618,5.867,5.8713,5.8747,5.8752,5.8712,5.8708,5.8726,5.8735,5.8739,5.8735,5.8483,5.8702,5.87,5.8699,5.8698,5.8697,5.85,5.8548,5.8564,5.8611,5.8627,5.8651,5.8694,5.8691,5.8732,5.8772,5.8753,5.8809,5.8824,5.8865,5.8876,5.8918,5.8885,5.8911,5.8918,5.8924,5.8932,5.8735,5.8924,5.8924,5.8923,5.8923,5.8922,0,5.8694,5.8702,5.8746,5.8782,5.8818,5.878,5.8805,5.8837,5.8888,5.8906,5.894,5.8996,5.9038,5.9034,5.9072,5.9107,5.9089,5.9117,5.9113,5.9114,5.8961,5.8941,5.9131,5.9131,5.9131,5.9131,5.9131,5.9131,5.88,5.8879,5.8871,5.8956,5.8963,5.9019,5.9036,5.9057,5.9071,5.9136,5.9171,5.9169,5.9177,5.9216,5.9252,5.925,5.9265,5.9299,5.929,5.9146,5.9126,5.9106,5.9086,5.9303,5.9304,5.9439,5.944,5.9441]}]]